This demonstration page uses our WeatherBlox Daily Observations layout. Learn more.

Left ArrowRight Arrow

Hourly Observations for July 15, 2015

Temp ( °F °C ) Dew Point ( °F °C ) Humidity (%) Winds ( mph kmh ) Pressure ( in mb ) Visibility ( mi km ) Precip ( " mm )
12:53 am 00:53 Clear 69 20.6 63 17.2 81 81 NW 6 9 29.75 1008 10 16 N/A
1:53 am 01:53 Clear 68 20 64 17.8 87 87 VRB 6 9 29.77 1008 10 16 N/A
2:53 am 02:53 Mostly Cloudy 68 20 64 17.8 87 87 NW 7 11 29.78 1008 10 16 N/A
3:53 am 03:53 Partly Cloudy 67 19.4 64 17.8 91 91 NW 6 9 29.79 1009 10 16 N/A
4:01 am 04:01 Mostly Cloudy 68 20 65 18.3 90 90 NW 6 9 29.80 1009 10 16 N/A
4:37 am 04:37 Partly Cloudy 67 19.4 63 17.2 87 87 NW 8 13 29.83 1010 10 16 N/A
4:53 am 04:53 Clear 66 18.9 63 17.2 90 90 NW 5 7 29.81 1009 10 16 N/A
5:53 am 05:53 Clear 66 18.9 64 17.8 93 93 WNW 5 7 29.82 1010 10 16 N/A
6:13 am 06:13 Mostly Cloudy 67 19.4 64 17.8 91 91 WNW 6 9 29.85 1011 10 16 N/A
6:53 am 06:53 Cloudy 68 20 64 17.8 87 87 WNW 6 9 29.85 1011 10 16 N/A
7:53 am 07:53 Cloudy 69 20.6 65 18.3 87 87 NNW 5 7 29.86 1011 10 16 N/A
8:25 am 08:25 Cloudy 70 21.1 65 18.3 84 84 NNW 10 17 29.88 1012 9 14 N/A
8:51 am 08:51 Cloudy 70 21 64 18 83 83 NNW 9 15 29.91 1013 9 14 N/A
8:53 am 08:53 Cloudy 70 21.1 64 17.8 82 82 NNW 8 13 29.88 1012 9 14 N/A
9:28 am 09:28 Partly Cloudy 72 22.2 64 17.8 76 76 N 10 17 29.91 1013 10 16 N/A
9:53 am 09:53 Partly Cloudy 73 22.8 64 17.8 74 74 VRB 6 9 29.91 1013 10 16 N/A
10:00 am 10:00 Mostly Cloudy 73 22.8 64 17.8 74 74 NNW 9 15 29.94 1014 10 16 N/A
10:22 am 10:22 Partly Cloudy 73 22.8 64 17.8 74 74 N 9 15 29.94 1014 10 16 N/A
10:46 am 10:46 Mostly Cloudy 72 22.2 63 17.2 73 73 N 9 15 29.94 1014 10 16 N/A
10:53 am 10:53 Mostly Cloudy 73 22.8 64 17.8 74 74 N 9 15 29.94 1014 10 16 N/A
11:40 am 11:40 Mostly Sunny 74 23.3 64 17.8 71 71 N 12 19 29.97 1015 10 16 N/A
11:53 am 11:53 Mostly Sunny 75 23.9 64 17.8 69 69 NNE 7 11 29.95 1014 10 16 N/A
12:53 pm 12:53 Mostly Sunny 77 25 65 18.3 66 66 NNW 6 9 29.95 1014 10 16 N/A
1:53 pm 13:53 Mostly Sunny 79 26.1 66 18.9 65 65 NE 6 9 29.94 1014 10 16 N/A
2:53 pm 14:53 Partly Cloudy 79 26.1 66 18.9 65 65 N 7 11 29.94 1014 10 16 N/A
3:53 pm 15:53 Sunny 80 26.7 65 18.3 60 60 N 9 15 29.94 1014 10 16 N/A
4:53 pm 16:53 Mostly Cloudy 82 27.8 66 18.9 58 58 N 8 13 29.94 1014 10 16 N/A
5:53 pm 17:53 Mostly Sunny 81 27.2 65 18.3 58 58 NNW 7 11 29.96 1014 10 16 N/A
6:53 pm 18:53 Sunny 80 26.7 64 17.8 58 58 N 8 13 29.94 1014 10 16 N/A
7:53 pm 19:53 Sunny 77 25 63 17.2 62 62 N 7 11 29.96 1014 10 16 N/A
8:53 pm 20:53 Sunny 74 23.3 63 17.2 69 69 NNE 6 9 29.97 1015 10 16 N/A
9:53 pm 21:53 Clear 71 21.7 62 16.7 73 73 NE 6 9 29.97 1015 10 16 N/A
10:53 pm 22:53 Clear 69 20.6 63 17.2 81 81 ENE 9 15 30.01 1016 10 16 N/A
11:53 pm 23:53 Clear 66 18.9 63 17.2 90 90 ESE 3 6 30.03 1017 8 13 N/A

Powered by AerisWeather